Location: Unspecified
(58.9933°N, 5.6375°E)
Time: 19:23:00
(UTC+02:00)

Okean 3 - Visible Passes

Search period start: 24 April 2014 00:00
Search period end: 04 May 2014 00:00
Orbit: 583 x 612 km, 82.5° (Epoch: 23 April)

Date Brightness Start Highest point End Pass type
(mag) Time Alt. Az. Time Alt. Az. Time Alt. Az.
24 Apr 5.9 23:27:06 10° WSW 23:30:34 24° WNW 23:34:03 10° N visible
25 Apr 3.5 21:59:07 10° SSW 22:03:23 90° ESE 22:07:39 10° NNE visible
25 Apr 6.3 23:38:27 10° W 23:41:27 18° NW 23:44:27 10° N visible
26 Apr 4.0 22:09:50 10° SSW 22:14:03 65° WNW 22:18:17 10° N visible
26 Apr 6.5 23:50:02 10° W 23:52:22 14° NW 23:54:43 10° NNW visible
27 Apr 4.7 22:20:40 10° SW 22:24:46 47° WNW 22:28:53 10° N visible
28 Apr 6.8 00:02:03 10° WNW 00:03:20 11° NW 00:04:36 10° NNW visible
28 Apr 5.4 22:31:39 10° SW 22:35:32 34° WNW 22:39:25 10° N visible
29 Apr 6.0 22:42:45 10° WSW 22:46:20 26° WNW 22:49:55 10° N visible
30 Apr 6.4 22:54:01 10° WSW 22:57:10 20° WNW 23:00:19 10° N visible
01 May 6.6 23:05:29 10° W 23:08:03 15° NW 23:10:36 10° NNW visible
02 May 6.9 23:17:17 10° WNW 23:18:58 12° NW 23:20:38 10° NNW visible
